Change the Weather History Date:

Sunday, May 19, 2013

  Actual Average Record
Temperature  
Mean Temperature 72 °F -  
Max Temperature 83 °F 69 °F 91 °F (1998)
Min Temperature 60 °F 52 °F 37 °F (2002)
Cooling Degree Days 6    
Growing Degree Days 22 (Base 50)    
Moisture  
Dew Point 65 °F    
Average Humidity 77    
Maximum Humidity 92    
Minimum Humidity 58    
Precipitation  
Precipitation 0.00 in - - ()
Sea Level Pressure  
Sea Level Pressure 29.94 in    
Wind  
Wind Speed 6 mph (SE)    
Max Wind Speed 13 mph    
Max Gust Speed -    
Visibility 10 miles    
Events      
Averages and records for this station are not official NWS values.
T = Trace of Precipitation, MM = Missing Value Source: NWS Daily Summary

Daily Weather History Graph

Daily Weather History Graph

Search for Another Location

Airport or City:

Trip Planner

Search our weather history database for the weather conditions in past years. The results will help you decide how hot, cold, wet, or windy it might be!

Date:

Astronomy

May. 19, 2013 Rise Set
Actual Time 6:23 AM EDT 8:58 PM EDT
Civil Twilight 5:52 AM EDT 9:30 PM EDT
Nautical Twilight 5:13 AM EDT 10:09 PM EDT
Astronomical Twilight 4:29 AM EDT 10:54 PM EDT
Moon 3:00 PM EDT (5/19) 2:49 AM EDT (5/19)
Length of Visible Light 15h 37m
Length of Day
14h 34m
Waxing Gibbous, 65% of the Moon is Illuminated
May 19
Waxing Gibbous
May 25
Full
May 31
Last Quarter
Jun 8
New
Jun 16
First Quarter

Hourly Weather History & Observations

Time (EDT) Temp. Heat Index Dew Point Humidity Pressure Visibility Wind Dir Wind Speed Gust Speed Precip Events Conditions
12:58 AM 67.1 °F - 63.0 °F 87% 29.99 in 10.0 mi East 3.5 mph - N/A   Mostly Cloudy
1:58 AM 66.7 °F - 63.0 °F 88% 29.96 in 10.0 mi East 11.5 mph - N/A   Scattered Clouds
2:58 AM 64.9 °F - 62.4 °F 92% 29.96 in 10.0 mi NE 5.8 mph - N/A   Clear
3:58 AM 64.0 °F - 60.8 °F 89% 29.97 in 10.0 mi East 4.6 mph - N/A   Scattered Clouds
4:58 AM 62.6 °F - 58.8 °F 87% 29.96 in 10.0 mi East 8.1 mph - N/A   Clear
5:58 AM 60.4 °F - 57.9 °F 91% 29.97 in 10.0 mi SE 3.5 mph - N/A   Clear
6:58 AM 60.3 °F - 57.4 °F 90% 29.98 in 10.0 mi East 3.5 mph - N/A   Clear
7:58 AM 63.5 °F - 59.4 °F 86% 29.98 in 10.0 mi SE 4.6 mph - N/A   Clear
8:58 AM 68.4 °F - 63.5 °F 84% 29.99 in 10.0 mi ESE 4.6 mph - N/A   Clear
9:58 AM 72.7 °F - 66.9 °F 82% 29.99 in 10.0 mi SE 3.5 mph - N/A   Clear
10:58 AM 75.2 °F - 67.3 °F 76% 29.98 in 10.0 mi Variable 4.6 mph - N/A   Scattered Clouds
11:03 AM 75.2 °F - 66.2 °F 73% 29.98 in 10.0 mi SSW 5.8 mph - N/A   Mostly Cloudy
11:28 AM 77.0 °F - 68.0 °F 74% 29.98 in 10.0 mi South 4.6 mph - N/A   Scattered Clouds
11:53 AM 75.2 °F - 68.0 °F 78% 29.99 in 10.0 mi SW 5.8 mph - N/A   Mostly Cloudy
11:58 AM 76.1 °F - 67.3 °F 74% 30.00 in 10.0 mi West 4.6 mph - N/A   Mostly Cloudy
12:18 PM 77.0 °F - 68.0 °F 74% 30.00 in 10.0 mi WSW 4.6 mph - N/A   Mostly Cloudy
12:58 PM 78.8 °F - 67.3 °F 68% 29.97 in 10.0 mi SW 5.8 mph - N/A   Clear
1:58 PM 79.7 °F - 68.4 °F 68% 29.94 in 10.0 mi Variable 5.8 mph - N/A   Clear
2:58 PM 82.2 °F 85.1 °F 68.2 °F 62% 29.91 in 10.0 mi SSE 8.1 mph - N/A   Clear
3:58 PM 83.1 °F 85.7 °F 66.9 °F 58% 29.91 in 10.0 mi SE 12.7 mph - N/A   Clear
4:58 PM 82.9 °F 85.8 °F 67.6 °F 60% 29.88 in 10.0 mi SE 12.7 mph - N/A   Clear
5:58 PM 82.8 °F 85.5 °F 67.5 °F 60% 29.87 in 10.0 mi SE 10.4 mph - N/A   Clear
6:58 PM 81.7 °F 83.6 °F 65.8 °F 58% 29.87 in 10.0 mi SSE 12.7 mph - N/A   Clear
7:58 PM 80.2 °F 82.2 °F 65.7 °F 61% 29.85 in 10.0 mi SE 10.4 mph - N/A   Clear
8:58 PM 75.7 °F - 66.4 °F 73% 29.87 in 10.0 mi SE 5.8 mph - N/A   Clear
9:34 PM 73.4 °F - 66.2 °F 78% 29.88 in 10.0 mi SE 6.9 mph - N/A   Light Drizzle
9:44 PM 73.4 °F - 66.2 °F 78% 29.89 in 10.0 mi SSE 4.6 mph - N/A   Clear
9:58 PM 72.7 °F - 66.6 °F 81% 29.88 in 10.0 mi SE 6.9 mph - N/A   Clear
10:58 PM 71.4 °F - 66.7 °F 85% 29.90 in 10.0 mi SE 5.8 mph - N/A   Clear
11:58 PM 71.8 °F - 66.4 °F 83% 29.88 in 10.0 mi SE 9.2 mph - N/A   Clear